Weather History for Moline, IL

Change the Weather History Date:

Friday, January 21, 2011

  Actual Average Record
Temperature  
Mean Temperature 1 °F 22 °F  
Max Temperature 10 °F 31 °F 64 °F (1957)
Min Temperature -8 °F 14 °F -21 °F (1970)
Degree Days  
Heating Degree Days 64 43  
Month to date heating degree days 960 892  
Since 1 July heating degree days 3318 3313  
Cooling Degree Days 0 0  
Month to date cooling degree days 0 0  
Year to date cooling degree days 0 0  
Moisture  
Dew Point -5 °F    
Average Humidity 70    
Maximum Humidity 80    
Minimum Humidity 60    
Precipitation  
Precipitation T in 0.04 in 1.35 in (1874)
Month to date precipitation 0.71 1.03  
Year to date precipitation 0.71 1.03  
Snow  
Snow 0.20 in 0.30 in - ()
Month to date snowfall 6.5 6.4  
Since 1 July snowfall 23.8 16.9  
Snow Depth 3.00 in    
Sea Level Pressure  
Sea Level Pressure 30.13 in    
Wind  
Wind Speed 5 mph (SSW)    
Max Wind Speed 10 mph    
Max Gust Speed 12 mph    
Visibility 9 miles    
Events Snow    
T = Trace of Precipitation, MM = Missing Value Source: NWS Daily Summary

Daily Weather History Graph

Daily Weather History Graph

Search for Another Location

Airport:

Trip Planner

Search our weather history database for the weather conditions in past years. The results will help you decide how hot, cold, wet, or windy it might be!

Date:

Astronomy

Jan. 21, 2011 Rise Set
Actual Time 7:22 AM CST 5:04 PM CST
Civil Twilight 6:52 AM CST 5:34 PM CST
Nautical Twilight 6:18 AM CST 6:08 PM CST
Astronomical Twilight 5:46 AM CST 6:41 PM CST
Moon 7:43 PM CST (1/21) 8:14 AM CST (1/21)
Length of Visible Light 10h 41m
Length of Day
9h 41m
Waning Gibbous, 95% of the Moon is Illuminated
Jan 21
Waning Gibbous
Jan 26
Last Quarter
Feb 2
New
Feb 11
First Quarter
Feb 18
Full

Hourly Weather History & Observations

Time (CST) Temp. Windchill Dew Point Humidity Pressure Visibility Wind Dir Wind Speed Gust Speed Precip Events Conditions
12:52 AM -2.0 °F -19.6 °F -9.9 °F 69% 30.19 in 10.0 mi WNW 11.5 mph - N/A   Clear
1:52 AM -2.9 °F - -11.0 °F 68% 30.19 in 10.0 mi North - - N/A   Clear
2:52 AM - - - N/A% 30.16 in - North - - N/A   Unknown
3:52 AM -5.1 °F - -11.9 °F 72% 30.20 in - North - - N/A   Unknown
4:52 AM - - - N/A% 30.16 in - North - - N/A   Unknown
5:52 AM - - - N/A% 30.15 in - North - - N/A   Unknown
6:08 AM -7.6 °F -22.1 °F -13.0 °F 77% 30.16 in 10.0 mi WNW 6.9 mph - N/A   Clear
6:52 AM -7.6 °F -22.1 °F -13.0 °F 77% 30.16 in 10.0 mi WNW 6.9 mph - N/A   Clear
7:52 AM -7.6 °F -16.5 °F -13.0 °F 77% 30.25 in 10.0 mi WNW 3.5 mph - N/A   Clear
8:52 AM -5.1 °F -15.8 °F -11.0 °F 76% 30.26 in 10.0 mi West 4.6 mph - N/A   Clear
9:52 AM -2.9 °F - -11.0 °F 68% 30.28 in 10.0 mi Calm Calm - N/A   Clear
10:46 AM -0.4 °F - -9.4 °F 66% 30.18 in 10.0 mi Calm Calm - N/A   Clear
10:52 AM -0.0 °F -7.9 °F -9.0 °F 66% 30.22 in 10.0 mi ENE 3.5 mph - N/A   Clear
11:52 AM 1.9 °F - -7.1 °F 66% 30.20 in 10.0 mi Calm Calm - N/A   Clear
12:52 PM 3.9 °F -3.4 °F -6.0 °F 64% 30.18 in 10.0 mi WSW 3.5 mph - N/A   Clear
1:52 PM 5.0 °F -4.1 °F -6.0 °F 61% 30.16 in 10.0 mi WSW 4.6 mph - N/A   Clear
2:52 PM 6.1 °F - -5.1 °F 60% 30.10 in 10.0 mi Calm Calm - N/A   Partly Cloudy
3:52 PM 7.0 °F 0.1 °F -5.1 °F 58% 30.08 in 10.0 mi SSE 3.5 mph - N/A   Clear
4:52 PM 7.0 °F -4.5 °F -2.9 °F 64% 30.07 in 9.0 mi SE 6.9 mph - N/A   Overcast
5:52 PM 7.0 °F 0.1 °F -0.9 °F 70% 30.06 in 9.0 mi SE 3.5 mph - N/A   Overcast
6:52 PM 8.1 °F -3.2 °F -0.0 °F 70% 30.09 in 10.0 mi South 6.9 mph - N/A   Overcast
7:52 PM 8.1 °F -2.0 °F 1.0 °F 73% 30.07 in 10.0 mi SSE 5.8 mph - N/A   Overcast
8:02 PM 8.6 °F -1.3 °F 1.4 °F 73% 30.02 in 9.0 mi SE 5.8 mph - N/A   Overcast
8:41 PM 8.6 °F 0.1 °F 1.4 °F 73% 30.01 in 6.0 mi South 4.6 mph - 0.00 in Snow Light Snow
8:52 PM 8.1 °F 1.4 °F 1.9 °F 76% 30.05 in 10.0 mi SSE 3.5 mph - 0.00 in   Overcast
9:52 PM 9.0 °F -2.2 °F 1.9 °F 73% 30.03 in 8.0 mi South 6.9 mph - 0.00 in Snow Light Snow
10:52 PM 9.0 °F -0.9 °F 3.0 °F 77% 30.01 in 7.0 mi South 5.8 mph - 0.00 in Snow Light Snow
11:52 PM 9.0 °F -0.9 °F 3.9 °F 80% 29.97 in 7.0 mi South 5.8 mph - N/A   Overcast